Regional Weather Roundup
Issued by NWS Upton, NY

Current Version | Previous Version | Text Only | Print | Product List | Glossary Off
Versions: 1 2 3 4 5 6 7 8 9 10 11 12 13 14 15 16 17 18 19 20 21 22 23 24 25 26 27 28 29 30 31 32 33 34 35 36 37 38 39 40 41 42 43 44 45 46 47 48 49 50
000 ASUS41 KOKX 200205 RWROKX Regional Weather Roundup National Weather Service New York NY 1000 PM EDT THU APR 19 2018 Note: "FAIR" indicates few or no clouds below 12,000 feet with no significant weather and/or obstructions to visibility. NYZ071-072-176-178-NJZ106-104-200300- New York City Metro Area CITY SKY/WX TMP DP RH WIND PRES REMARKS Central Park FAIR 40 24 53 W6G18 30.00R Bronx Bot Gard N/A 39 25 56 N3 29.98R Bronx Lehman C N/A 39 25 56 NW12 N/A WCI 32 LaGuardia Arpt FAIR 42 25 50 NW22G37 29.98R Queens College N/A 41 25 52 W17G32 N/A Kennedy Intl FAIR 41 23 48 NW22 29.99R Breezy Point N/A 39 N/A N/A NW15G22 N/A WCI 31 Brooklyn Coll N/A 41 25 52 NW17 N/A Staten Island N/A 39 27 60 NW13G26 N/A WCI 32 Newark/Liberty FAIR 41 23 48 W12G20 30.00R Teterboro FAIR 40 25 55 NW16G28 29.99R WCI 31 $$ NYZ177-179-078>081-200300- Long Island New York CITY SKY/WX TMP DP RH WIND PRES REMARKS Jones Beach N/A 41 N/A N/A NW16G24 N/A Wantagh N/A 41 25 52 NW13 N/A Hempstead N/A 41 27 56 NW12 29.99R Matinecock Pt N/A 41 N/A N/A W26G33 N/A Farmingdale FAIR 40 24 53 NW16G23 29.95R WCI 31 MacArthur/ISP FAIR 41 25 53 NW17G25 29.93R Stony Brook N/A 41 28 60 NW10 N/A Shirley FAIR 40 29 64 NW10 29.93R WCI 33 Mt Sinai Harb N/A 41 N/A N/A NW10G17 N/A Westhampton MOCLDY 39 32 76 NW10 29.93R WCI 32 East Hampton CLOUDY 40 30 66 NW13G20 29.88R WCI 33 Southold N/A 41 30 65 NW16G28 N/A Montauk N/A 44 32 62 NW13G23 29.87R $$ NYZ052-065-067-200300- Hudson Valley CITY SKY/WX TMP DP RH WIND PRES REMARKS White Plains FAIR 38 24 57 W10G24 29.94R WCI 31 Larchmont Harb N/A 39 N/A N/A W20G26 N/A WCI 30 Croton On Huds N/A 39 N/A N/A SW21G28 N/A WCI 29 Somers N/A 37 27 65 NW9 N/A WCI 31 Brewster N/A 36 25 64 NW7 N/A WCI 30 Newburgh PTCLDY 37 28 70 NW12 29.96R WCI 30 Montgomery FAIR 37 25 61 W10 29.96R WCI 30 Otisville N/A 34 28 80 W5 N/A WCI 30 Warwick N/A 36 28 75 NW12 N/A WCI 27 Suffern N/A 36 27 69 NW13 N/A WCI 27 Poughkeepsie CLOUDY 39 24 55 W10 29.95R WCI 32 Albany CLOUDY 36 25 64 W16G25 29.93R WCI 26 $$ NJZ001-105-106-008-010-013-015-019>022-104-200300- New Jersey CITY SKY/WX TMP DP RH WIND PRES REMARKS Newark/Liberty FAIR 41 23 48 W12G20 30.00R Teterboro FAIR 40 25 55 NW16G28 29.99R WCI 31 Caldwell FAIR 39 23 52 NW12G20 30.00R WCI 32 Somerville FAIR 39 28 64 NW8 30.01R WCI 33 Linden FAIR 40 24 54 NW18G28 30.01R WCI 31 Perth Amboy N/A 41 N/A N/A NW20G28 N/A Sussex FAIR 36 24 62 VRB7 30.00R WCI 30 Andover N/A 35 25 66 VRB6 30.00R WCI 30 Trenton FAIR 40 27 59 W8 30.03R WCI 34 Millville FAIR 42 25 50 NW16 30.08R Atlantic City CLOUDY 45 28 51 NW17G25 30.04R Wrightstown FAIR 40 27 60 NW8G18 30.02 WCI 34 Toms River MOCLDY 40 30 67 NW13 30.04R WCI 32 Belmar MOCLDY 40 26 57 NW15G25 30.02R WCI 32 $$ PAZ047>061-062-071-200300- Eastern Pennsylvania CITY SKY/WX TMP DP RH WIND PRES REMARKS Philadelphia FAIR 42 23 46 W14G23 30.08R Allentown CLOUDY 41 24 51 NW10 30.04R Scranton CLOUDY 34 29 82 NW8 30.03R WCI 27 $$ CTZ002-004>006-009-010-012-RIZ004-006-007-MAZ004-011-015-200300- Southern New England In CT CITY SKY/WX TMP DP RH WIND PRES REMARKS Bradley Intl CLOUDY 38 28 67 NW10 29.89R WCI 31 Hartford CLOUDY 40 28 62 NW14 29.90R WCI 32 Danbury FAIR 36 22 56 W5 29.93R WCI 32 Wtrbury/Oxford FAIR 35 25 66 NW9 29.90R WCI 28 Norwalk Harbor N/A 39 N/A N/A W13 N/A WCI 32 Bridgeport FAIR 40 25 55 NW9 29.92R WCI 34 Meriden CLOUDY 39 26 59 NW14G21 29.91R WCI 31 New Haven FAIR 41 26 55 NW8 29.91R Chester MIX PCPN 39 27 60 MISG 29.88R Groton CLOUDY 41 28 60 NW14G21 29.86R Willimantic CLOUDY 40 29 64 NW8 29.87R WCI 34 In RI CITY SKY/WX TMP DP RH WIND PRES REMARKS Providence LGT RAIN 41 34 76 NW16G23 29.83R Block Island CLOUDY 41 33 73 W8G16 29.86R Westerly CLOUDY 43 30 60 NW6G20 29.85R In MA CITY SKY/WX TMP DP RH WIND PRES REMARKS Boston CLOUDY 42 34 73 NW14 29.80R Worcester CLOUDY 34 30 85 NW16 29.80R WCI 24 Westfield CLOUDY 38 29 70 NW9 29.88R WCI 31 Provincetown LGT RAIN 42 38 85 W10 29.78R Nantucket LGT RAIN 42 41 96 W13 29.80R $$ ANZ330-335-338-340-345-350-353-355-200300- Coastal Marine Observations STATION/POSITION TIME SKY/WX TEMP WIND PRES VSBY WAVE AIR SEA DIR/SP/G HT/PER (UTC) (F) (DEG/KT/KT) (MB) (MI) (FT/S) NY Harb Entrance 0150 43 44 300/ 23/ 29 1015.2 4/ 5 20 S Fire Island 0150 44 42 310/ 23/ 27 1013.5 4/ 5 23 SSW Montauk P 0150 42 42 290/ 19/ 25 1011.7 4/ 4 15 E Barnegat Li 0130 44 N/A 5/ 8 Hudson Canyon 0150 45 45 310/ 21/ 25 1013.2 6/ 8 Kings Point 0148 44 350/ 16/ 20 N/A Execution Rocks NOT AVBL Western LI Sound NOT AVBL Central LI Sound 0130 42 310/ 16/ 19 N/A 2 Robbins Reef 0148 41 310/ 22/ 27 1016.0 $$ >>>>>>>>>>>>>>>>>>>>>>>>>>>> KEY <<<<<<<<<<<<<<<<<<<<<<<<<<< > < > SKY/WX - Sky Condition/Present Weather < > TMP - Temperature in Fahrenheit < > DP - Dew Point in Fahrenheit < > RH - Relative Humidity in Percent < > WIND - Direction (from) and Speed in MPH < > PRES - Mean Sea Level Pressure (inches of Hg) < > WCI - Wind Chill Index < > VSB - Visibility in Miles < > HX - Heat Index < > TC - Temperature in Celsius < > VRB - Varibale Wind Direction < > < >>>>>>>>>>>>>>>>>>>>>>>>>>>> KEY <<<<<<<<<<<<<<<<<<<<<<<<<<<

USA.gov is the U.S. government's official web portal to all federal, state and local government web resources and services.